カタログに戻る

STARLINK-34207

運用中通信VLEO
NORAD 64333·PAYLOAD·🇺🇸 United States

打ち上げ Jun 10, 2025 から Cape Canaveral Space Force Station

Loading…

次のパス (今後24時間)

TLE

最新Source: CelesTrak SupGP

元期: Sep 14, 2026, 20:41 UTC

1 64333C 25124S   26257.86229167 -.00031498  00000+0 -11410-2 0  2578
2 64333  42.9991 133.4889 0001391 267.7527 337.8131 15.27589145    15

AllMySatでSTARLINK-34207をリアルタイム追跡

Download on the App Store